Location: Siratepeler Tepesi
(39.1042°N, 32.0781°E)
Time: 05:47:31
(UTC+00:00)

MetOp-B - Pass Details

Date: 11 April 2026
Orbit: 818 x 823 km, 98.7° (Epoch: 9 May)

Event Time Altitude Azimuth Distance (km) Brightness Sun altitude
Exits shadow 17:53:58 26° 137° (SE) 1,557 5.0 -17.1°
Maximum altitude 17:56:46 53° 72° (ENE) 1,001 4.3 -17.6°
Drops below altitude 10° 18:01:59 10° 356° (N) 2,427 7.0 -18.5°
Sets 18:04:23 0° 352° (N) 3,363 7.8 -18.9°
